• In Deutschland
  • Länderverzeichnis
  • Für 7 Tage
  • Wassertemperatur
  • Satellitenkarten
  • Wetterkarte
  • Widgets
  • user-avatar
    Anmelden

    Stündliche Wetter Schwäbisch Gmünd

    Heute, 18 Oktober, Mittwoch

    Zeit Temperatur Niederschläge Wind Luftdruck Luftfeuchtigkeit
    00:00 +13°C° 0 mm 1 m/S 728 mmHg 74%
    01:00 +13°C° 0 mm 1 m/S 727 mmHg 73%
    02:00 +12°C° 0 mm 1 m/S 727 mmHg 73%
    03:00 +12°C° 0 mm 1 m/S 727 mmHg 73%
    04:00 +12°C° 0 mm 1 m/S 727 mmHg 72%
    05:00 +11°C° 0 mm 1 m/S 726 mmHg 72%
    06:00 +11°C° 0 mm 1 m/S 726 mmHg 72%
    07:00 +11°C° 0 mm 1 m/S 726 mmHg 72%
    08:00 +13°C° 0 mm 1 m/S 726 mmHg 66%
    09:00 +15°C° 0 mm 1 m/S 726 mmHg 61%
    10:00 +19°C° 0 mm 1 m/S 726 mmHg 56%
    11:00 +20°C° 0 mm 1 m/S 726 mmHg 52%
    12:00 +21°C° 0 mm 1 m/S 726 mmHg 49%
    13:00 +22°C° 0 mm 1 m/S 726 mmHg 45%
    14:00 +21°C° 0 mm 1 m/S 726 mmHg 50%
    15:00 +21°C° 0 mm 1 m/S 725 mmHg 54%
    16:00 +20°C° 0 mm 1 m/S 725 mmHg 59%
    17:00 +18°C° 0 mm 1 m/S 725 mmHg 64%
    18:00 +15°C° 0 mm 1 m/S 725 mmHg 69%
    19:00 +13°C° 0 mm 1 m/S 725 mmHg 74%
    20:00 +13°C° 0 mm 1 m/S 725 mmHg 75%
    21:00 +12°C° 0 mm 1 m/S 725 mmHg 76%
    22:00 +12°C° 0 mm 1 m/S 725 mmHg 77%
    23:00 +12°C° 0 mm 1 m/S 725 mmHg 78%

    Morgen, 19 Oktober, Donnerstag

    Zeit Temperatur Niederschläge Wind Luftdruck Luftfeuchtigkeit
    00:00 +11°C° 0 mm 1 m/S 725 mmHg 79%
    01:00 +11°C° 0 mm 1 m/S 725 mmHg 80%
    02:00 +11°C° 0 mm 1 m/S 725 mmHg 81%
    03:00 +11°C° 0 mm 1 m/S 725 mmHg 82%
    04:00 +10°C° 0 mm 1 m/S 724 mmHg 82%
    05:00 +10°C° 0 mm 1 m/S 724 mmHg 83%
    06:00 +10°C° 0 mm 1 m/S 724 mmHg 84%
    07:00 +10°C° 0 mm 1 m/S 724 mmHg 85%
    08:00 +12°C° 0 mm 1 m/S 724 mmHg 79%
    09:00 +14°C° 0 mm 2 m/S 725 mmHg 73%
    10:00 +16°C° 0 mm 2 m/S 725 mmHg 67%
    11:00 +17°C° 0 mm 2 m/S 725 mmHg 63%
    12:00 +19°C° 0 mm 2 m/S 725 mmHg 59%
    13:00 +20°C° 0 mm 2 m/S 725 mmHg 56%
    14:00 +19°C° 0 mm 2 m/S 724 mmHg 59%
    15:00 +19°C° 0 mm 2 m/S 724 mmHg 63%
    16:00 +19°C° 0 mm 2 m/S 724 mmHg 67%
    17:00 +17°C° 0 mm 2 m/S 724 mmHg 72%
    18:00 +15°C° 0 mm 2 m/S 724 mmHg 78%
    19:00 +13°C° 0 mm 2 m/S 724 mmHg 84%
    20:00 +12°C° 0 mm 2 m/S 724 mmHg 85%
    21:00 +12°C° 0 mm 2 m/S 724 mmHg 86%
    22:00 +10°C° 0 mm 2 m/S 724 mmHg 87%
    23:00 +11°C° 0 mm 1 m/S 724 mmHg 88%

    übermorgen, 20 Oktober, Freitag

    Zeit Temperatur Niederschläge Wind Luftdruck Luftfeuchtigkeit
    00:00 +11°C° 0 mm 1 m/S 724 mmHg 89%
    01:00 +10°C° 0 mm 1 m/S 724 mmHg 89%
    02:00 +10°C° 0 mm 1 m/S 724 mmHg 90%
    03:00 +10°C° 0 mm 1 m/S 724 mmHg 90%
    04:00 +10°C° 0 mm 1 m/S 724 mmHg 91%
    05:00 +9°C° 0 mm 1 m/S 724 mmHg 91%
    06:00 +9°C° 0 mm 1 m/S 724 mmHg 91%
    07:00 +9°C° 0 mm 1 m/S 724 mmHg 91%
    08:00 +11°C° 0 mm 1 m/S 724 mmHg 84%
    09:00 +13°C° 0 mm 1 m/S 725 mmHg 77%
    10:00 +15°C° 0 mm 1 m/S 725 mmHg 70%
    11:00 +18°C° 0 mm 1 m/S 725 mmHg 65%
    12:00 +18°C° 0 mm 2 m/S 725 mmHg 60%
    13:00 +19°C° 0 mm 2 m/S 725 mmHg 55%
    14:00 +20°C° 0 mm 1 m/S 725 mmHg 59%
    15:00 +20°C° 0 mm 1 m/S 725 mmHg 62%
    16:00 +19°C° 0 mm 1 m/S 725 mmHg 66%
    17:00 +18°C° 0 mm 1 m/S 725 mmHg 70%
    18:00 +15°C° 0 mm 1 m/S 726 mmHg 74%
    19:00 +13°C° 0 mm 1 m/S 726 mmHg 79%
    20:00 +13°C° 0 mm 1 m/S 726 mmHg 80%
    21:00 +13°C° 0 mm 1 m/S 726 mmHg 81%
    22:00 +12°C° 0 mm 1 m/S 726 mmHg 83%
    23:00 +12°C° 0 mm 1 m/S 726 mmHg 83%

    21 Oktober, Samstag

    Zeit Temperatur Niederschläge Wind Luftdruck Luftfeuchtigkeit
    00:00 +12°C° 0 mm 1 m/S 726 mmHg 83%
    01:00 +12°C° 0 mm 1 m/S 726 mmHg 83%
    02:00 +12°C° 0 mm 1 m/S 726 mmHg 82%
    03:00 +13°C° 0 mm 2 m/S 726 mmHg 81%
    04:00 +13°C° 0 mm 2 m/S 726 mmHg 80%
    05:00 +13°C° 0 mm 2 m/S 726 mmHg 79%
    06:00 +13°C° 0 mm 2 m/S 726 mmHg 79%
    07:00 +13°C° 0 mm 2 m/S 726 mmHg 79%
    08:00 +13°C° 0 mm 3 m/S 726 mmHg 75%
    09:00 +16°C° 0 mm 3 m/S 726 mmHg 71%
    10:00 +18°C° 0 mm 3 m/S 726 mmHg 67%
    11:00 +18°C° 0 mm 3 m/S 726 mmHg 65%
    12:00 +19°C° 0 mm 4 m/S 726 mmHg 63%
    13:00 +20°C° 0 mm 4 m/S 725 mmHg 60%
    14:00 +19°C° 0,1 mm 3 m/S 725 mmHg 65%
    15:00 +18°C° 0,1 mm 3 m/S 726 mmHg 69%
    16:00 +17°C° 0,1 mm 3 m/S 726 mmHg 73%
    17:00 +16°C° 1 mm 3 m/S 726 mmHg 80%
    18:00 +15°C° 1 mm 2 m/S 726 mmHg 86%
    19:00 +14°C° 1 mm 2 m/S 727 mmHg 93%
    20:00 +14°C° 0,3 mm 2 m/S 727 mmHg 93%
    21:00 +14°C° 0,3 mm 2 m/S 727 mmHg 93%
    22:00 +13°C° 0,3 mm 2 m/S 727 mmHg 92%
    23:00 +12°C° 0,3 mm 3 m/S 727 mmHg 92%

    22 Oktober, Sonntag

    Zeit Temperatur Niederschläge Wind Luftdruck Luftfeuchtigkeit
    00:00 +12°C° 0,3 mm 3 m/S 727 mmHg 91%
    01:00 +11°C° 0,3 mm 3 m/S 727 mmHg 90%
    02:00 +11°C° 0,5 mm 3 m/S 727 mmHg 91%
    03:00 +10°C° 0,5 mm 3 m/S 727 mmHg 91%
    04:00 +10°C° 0,5 mm 3 m/S 727 mmHg 91%
    05:00 +9°C° 0,4 mm 3 m/S 727 mmHg 91%
    06:00 +9°C° 0,4 mm 3 m/S 727 mmHg 91%
    07:00 +9°C° 0,4 mm 3 m/S 727 mmHg 91%
    08:00 +9°C° 0,3 mm 3 m/S 728 mmHg 89%
    09:00 +8°C° 0,3 mm 4 m/S 728 mmHg 87%
    10:00 +8°C° 0,3 mm 4 m/S 728 mmHg 85%
    11:00 +10°C° 0,2 mm 4 m/S 728 mmHg 83%
    12:00 +10°C° 0,2 mm 4 m/S 729 mmHg 81%
    13:00 +10°C° 0,2 mm 4 m/S 729 mmHg 79%
    14:00 +10°C° 0,1 mm 4 m/S 729 mmHg 79%
    15:00 +10°C° 0,1 mm 4 m/S 729 mmHg 78%
    16:00 +10°C° 0,1 mm 4 m/S 729 mmHg 77%
    17:00 +8°C° 0 mm 4 m/S 729 mmHg 81%
    18:00 +8°C° 0 mm 3 m/S 730 mmHg 85%
    19:00 +7°C° 0 mm 3 m/S 730 mmHg 89%
    20:00 +5°C° 0 mm 3 m/S 730 mmHg 90%
    21:00 +5°C° 0 mm 3 m/S 731 mmHg 92%
    22:00 +5°C° 0 mm 3 m/S 731 mmHg 93%
    23:00 +4°C° 0 mm 3 m/S 731 mmHg 94%

    23 Oktober, Montag

    Zeit Temperatur Niederschläge Wind Luftdruck Luftfeuchtigkeit
    00:00 +4°C° 0 mm 3 m/S 732 mmHg 94%
    01:00 +4°C° 0 mm 3 m/S 732 mmHg 95%
    02:00 +5°C° 0 mm 2 m/S 732 mmHg 95%
    03:00 +4°C° 0 mm 2 m/S 732 mmHg 95%
    04:00 +4°C° 0 mm 2 m/S 732 mmHg 96%
    05:00 +4°C° 0 mm 2 m/S 733 mmHg 95%
    06:00 +4°C° 0 mm 2 m/S 733 mmHg 95%
    07:00 +3°C° 0 mm 2 m/S 733 mmHg 95%
    08:00 +5°C° 0 mm 2 m/S 733 mmHg 89%
    09:00 +7°C° 0 mm 2 m/S 734 mmHg 83%
    10:00 +8°C° 0 mm 2 m/S 734 mmHg 77%
    11:00 +9°C° 0 mm 2 m/S 734 mmHg 73%
    12:00 +10°C° 0 mm 2 m/S 733 mmHg 68%
    13:00 +12°C° 0 mm 2 m/S 733 mmHg 64%
    14:00 +12°C° 0 mm 2 m/S 733 mmHg 66%
    15:00 +12°C° 0 mm 1 m/S 733 mmHg 67%
    16:00 +12°C° 0 mm 1 m/S 732 mmHg 69%
    17:00 +10°C° 0 mm 1 m/S 732 mmHg 74%
    18:00 +9°C° 0 mm 1 m/S 733 mmHg 79%
    19:00 +6°C° 0 mm 0 m/S 733 mmHg 83%
    20:00 +7°C° 0 mm 1 m/S 733 mmHg 84%
    21:00 +7°C° 0 mm 1 m/S 733 mmHg 85%
    22:00 +6°C° 0 mm 1 m/S 732 mmHg 85%
    23:00 +6°C° 0 mm 1 m/S 732 mmHg 86%
    Mehr zeigen